Temp
15 14 14 14 14 14 13 13 13 13 13 13 13 13 12 12 12 12 12 11 11 11 11 10 10 9 9 9 8 8 8 8 8 8 8 8 8 7 7 7 6 6 6 5 5 5 5 5 4 4 4 4 4 4 4 3 3 3 2 2 2 2 2 2 2 3 3 3 4
14 14 14 14 14 13 13 13 13 13 13 13 13 12 12 12 12 11 11 11 11 10 10 10 9 9 9 8 8 8 8 8 8 7 7 7 7 7 6 6 6 6 5 5 5 5 5 5 4 4 4 4 4 4 4 3 3 3 2 2 2 2 2 3 3 3 4 4 4
14 14 14 13 13 13 13 13 13 13 13 13 12 12 12 12 11 11 11 11 10 10 10 10 9 9 9 9 8 8 8 8 7 7 7 7 7 6 6 6 6 6 6 6 5 5 5 4 4 4 4 4 3 3 3 3 3 2 2 2 2 2 3 3 3 4 4 4 4
14 13 13 13 13 13 13 13 13 12 12 12 12 12 12 11 11 11 11 10 10 10 10 10 9 9 9 9 8 8 8 8 8 8 7 7 7 7 6 6 6 6 6 6 5 5 4 4 4 4 3 3 3 3 3 3 2 2 2 2 3 3 3 4 4 4 4 4 4
13 13 13 13 13 12 12 12 12 12 12 12 12 12 11 11 11 11 10 10 10 10 10 10 9 9 9 9 8 8 8 8 8 8 8 8 7 7 7 6 6 5 5 5 5 5 4 4 4 3 3 3 2 2 2 2 2 2 3 3 3 4 4 4 4 4 4 4 4
13 13 13 12 12 12 12 12 12 12 12 12 11 11 11 11 11 10 10 10 10 9 9 9 9 9 8 8 8 8 8 8 8 8 7 7 7 7 7 6 6 6 5 5 5 5 4 4 4 3 3 3 2 2 2 2 2 3 3 4 4 4 4 4 4 4 4 4 4
13 13 12 12 12 12 12 12 12 11 11 11 11 11 11 11 10 10 10 10 9 9 8 8 8 8 8 8 8 8 7 7 7 7 6 6 6 6 6 6 6 6 5 5 5 4 4 4 4 3 3 3 3 3 3 3 4 4 4 4 4 4 4 4 4 4 4 4 4
13 12 12 12 12 12 12 11 11 11 11 11 10 10 10 10 10 10 9 9 9 8 8 8 8 8 8 8 8 7 7 7 7 6 6 6 6 6 6 6 6 5 5 5 5 4 4 4 3 3 3 3 3 4 4 4 4 4 4 4 4 4 4 4 4 4 4 3 3
12 12 12 12 12 12 11 11 11 11 10 10 10 10 10 10 9 9 9 9 8 8 8 8 8 7 7 7 7 7 7 7 6 6 6 6 6 6 6 5 5 5 5 5 5 4 4 4 4 4 4 5 5 5 4 4 4 4 4 4 4 4 4 4 3 3 3 3 3
12 12 12 12 12 11 11 11 11 10 10 10 10 10 10 9 9 9 9 8 8 8 8 7 7 7 7 7 7 7 7 7 6 6 6 6 5 5 5 5 5 5 5 5 5 5 5 5 5 5 5 4 4 4 4 4 4 4 4 4 4 3 3 3 3 3 3 3 3
12 12 12 12 11 11 11 10 10 10 10 10 10 9 9 9 9 9 8 8 8 8 7 7 7 7 7 7 7 7 7 6 6 6 6 5 5 5 5 5 5 5 5 5 5 5 5 5 4 4 4 4 4 4 4 4 4 4 3 3 3 3 3 3 3 3 2 2 2
12 12 12 11 11 11 10 10 10 10 10 9 9 9 9 9 8 8 8 8 8 8 7 7 7 7 7 7 7 7 6 6 6 6 5 5 5 5 5 5 5 5 5 5 5 5 4 4 4 4 4 4 4 4 4 3 3 3 3 3 3 3 3 3 2 2 2 2 2
12 12 11 11 11 10 10 10 10 10 9 9 9 9 9 9 8 8 8 8 8 8 7 7 7 7 7 7 6 6 6 6 6 5 5 5 5 5 5 5 5 5 5 5 5 4 4 4 4 4 4 4 3 3 3 3 3 3 3 3 2 2 2 2 2 2 2 2 2
12 11 11 11 10 10 10 10 9 9 9 9 9 9 9 8 8 8 8 8 8 7 7 7 7 7 6 6 6 6 6 5 5 5 5 5 5 5 5 5 5 5 5 5 4 4 4 4 4 4 3 3 3 3 3 3 3 3 2 2 2 2 2 2 2 2 2 2 2
11 11 11 10 10 10 10 9 9 9 9 9 9 9 8 8 8 8 8 7 7 7 7 7 7 6 6 6 6 5 5 5 5 5 5 5 5 5 5 5 5 5 4 4 4 4 4 4 4 3 3 3 3 3 3 3 3 2 2 2 2 2 2 2 2 2 1 1 1
11 11 10 10 10 10 9 9 9 9 9 9 8 8 8 8 8 8 8 7 7 7 7 6 6 6 6 5 5 5 5 5 5 5 5 5 5 5 5 4 4 4 4 4 4 4 4 3 3 3 3 3 3 3 3 2 2 2 2 2 2 2 2 1 1 1 1 1 1
11 10 10 10 10 9 9 9 9 9 9 8 8 8 8 8 7 7 7 7 7 7 6 6 6 6 5 5 5 5 5 5 5 5 5 5 4 4 4 4 4 4 4 4 3 3 3 3 3 3 3 3 3 2 2 2 2 2 2 2 1 1 1 1 1 1 1 1 1
10 10 10 10 10 9 9 9 9 9 8 8 8 8 8 8 7 7 7 7 6 6 6 6 6 5 5 5 5 5 5 5 5 4 4 4 4 4 4 4 4 3 3 3 3 3 3 3 3 3 3 2 2 2 2 2 2 2 1 1 1 1 1 1 1 1 1 0 0
10 10 10 10 10 9 9 9 9 9 8 8 8 8 7 7 7 7 7 6 6 6 6 6 6 6 5 5 5 5 5 4 4 4 4 4 4 4 4 3 3 3 3 3 3 3 3 3 3 2 2 2 2 2 2 1 1 1 1 1 1 1 1 1 1 0 0 0 0
10 10 10 10 10 9 9 9 9 8 8 8 8 8 7 7 7 7 6 6 6 6 5 5 5 5 5 5 5 4 4 4 4 4 4 4 4 3 3 3 3 3 3 3 3 2 2 2 2 2 2 2 2 2 1 1 1 1 1 1 1 1 1 0 0 0 0 0 -0
10 10 10 9 9 9 9 9 9 8 8 8 8 7 7 7 7 6 6 6 6 5 5 5 5 5 4 4 4 4 4 4 4 3 3 3 3 3 3 3 3 2 2 2 2 2 2 2 2 2 2 2 1 1 1 1 1 1 1 1 0 0 0 0 0 0 -0 -0 -0
10 9 9 9 9 9 9 9 8 8 8 8 7 7 7 7 6 6 6 6 5 5 5 4 4 4 4 4 4 3 3 3 3 3 3 3 3 3 2 2 2 2 2 2 2 2 2 2 2 1 1 1 1 1 1 1 1 0 0 0 0 0 0 0 -0 -0 -0 -0 -1
9 9 9 9 9 9 9 8 8 8 8 7 7 7 7 6 6 6 6 5 5 5 4 4 4 3 3 3 3 3 3 3 3 3 3 3 2 2 2 2 2 2 2 2 2 1 1 1 1 1 1 1 1 1 1 0 0 0 0 0 0 -0 -0 -0 -0 -1 -1 -1 -1
9 9 9 9 9 9 9 8 8 8 8 7 7 7 6 6 6 5 5 5 5 4 4 3 3 3 3 3 3 3 3 3 3 3 3 3 2 2 2 2 2 2 1 1 1 1 1 1 1 1 1 1 1 1 0 0 0 -0 -0 -0 -0 -0 -1 -1 -1 -1 -1 -1 -1
9 9 9 9 9 8 8 8 8 8 7 7 7 7 6 6 5 5 5 5 4 4 3 3 3 3 3 3 3 3 3 3 3 3 3 2 2 2 2 2 2 1 1 1 1 1 1 1 1 1 1 1 0 0 0 -0 -0 -0 -1 -1 -1 -1 -1 -1 -1 -2 -2 -2 -2
9 8 8 8 8 8 8 8 8 8 7 7 7 6 6 5 5 5 5 4 4 3 3 3 3 2 2 2 2 2 2 2 2 2 2 2 2 2 2 1 1 1 1 1 1 1 1 1 1 1 0 0 0 -0 -0 -1 -1 -1 -1 -1 -2 -2 -2 -2 -2 -2 -2 -3 -3
8 8 8 8 8 8 8 8 7 7 7 6 6 6 5 5 5 5 4 4 3 3 2 2 2 2 2 2 2 2 2 2 2 2 2 1 1 1 1 1 1 1 0 0 0 0 0 0 0 0 0 -0 -0 -1 -1 -1 -1 -1 -2 -2 -2 -2 -2 -3 -3 -3 -3 -3 -3
8 8 8 8 8 7 7 7 7 6 6 5 5 5 5 4 4 4 3 3 2 2 2 2 2 2 2 2 2 2 2 1 1 1 1 1 1 0 0 0 0 -0 -0 -0 -0 -0 -0 -0 -0 -0 -0 -1 -1 -1 -1 -2 -2 -2 -2 -2 -3 -3 -3 -3 -3 -4 -4 -4 -4
8 8 7 7 7 7 6 6 5 5 5 5 4 4 4 3 3 3 3 2 2 2 2 2 2 2 1 1 1 1 1 1 0 0 0 0 -0 -0 -0 -0 -0 -1 -1 -1 -1 -1 -1 -1 -1 -1 -1 -1 -2 -2 -2 -2 -2 -2 -3 -3 -3 -3 -3 -4 -4 -4 -4 -4 -4
8 7 7 6 6 6 5 5 5 4 4 4 4 3 3 3 3 2 2 2 2 2 2 1 1 1 1 1 1 1 0 0 0 -0 -0 -0 -0 -1 -1 -1 -1 -1 -1 -1 -1 -1 -1 -1 -1 -1 -1 -2 -2 -2 -2 -3 -3 -3 -3 -3 -4 -4 -4 -4 -4 -4 -4 -5 -5
7 7 6 5 5 4 4 4 4 3 3 3 3 3 2 2 2 2 2 1 1 1 1 1 1 1 1 0 0 0 0 -0 -0 -0 -1 -1 -1 -1 -1 -1 -1 -1 -1 -1 -1 -1 -1 -1 -1 -2 -2 -2 -2 -3 -3 -3 -3 -3 -4 -4 -4 -4 -4 -4 -5 -5 -5 -5 -5
6 6 5 5 4 4 3 3 3 3 3 3 3 2 2 2 2 1 1 1 1 1 1 1 1 1 1 0 0 0 -0 -0 -0 -1 -1 -1 -1 -1 -1 -1 -1 -1 -1 -1 -1 -1 -2 -2 -2 -2 -2 -3 -3 -3 -3 -3 -4 -4 -4 -4 -4 -4 -4 -5 -5 -5 -5 -5 -5
6 5 5 4 4 3 3 3 3 3 3 2 2 2 1 1 1 1 1 1 1 1 1 1 0 0 0 0 -0 -0 -0 -1 -1 -1 -1 -1 -1 -1 -1 -1 -1 -1 -1 -1 -2 -2 -2 -2 -2 -3 -3 -3 -3 -3 -4 -4 -4 -4 -4 -4 -4 -5 -5 -5 -5 -5 -5 -5 -5
5 5 4 4 3 3 3 2 2 2 2 2 2 1 1 1 1 1 1 1 1 1 1 0 0 -0 -0 -0 -1 -1 -1 -1 -1 -1 -1 -1 -1 -1 -1 -1 -1 -1 -2 -2 -2 -2 -2 -2 -3 -3 -3 -3 -4 -4 -4 -4 -4 -4 -5 -5 -5 -5 -5 -5 -5 -5 -5 -5 -5
5 4 4 3 3 2 2 2 2 2 2 2 1 1 1 1 1 1 1 1 1 1 0 0 -0 -0 -1 -1 -1 -1 -1 -1 -1 -1 -1 -1 -1 -1 -1 -1 -2 -2 -2 -2 -2 -2 -3 -3 -3 -3 -3 -4 -4 -4 -4 -4 -5 -5 -5 -5 -5 -5 -5 -5 -5 -5 -5 -5 -5
4 4 3 3 2 2 2 2 2 2 1 1 1 1 1 1 1 1 1 1 1 0 0 -0 -0 -0 -1 -1 -1 -1 -1 -1 -1 -1 -1 -1 -1 -2 -2 -2 -2 -2 -2 -3 -3 -3 -3 -3 -3 -4 -4 -4 -4 -4 -4 -5 -5 -5 -5 -5 -5 -5 -5 -5 -5 -5 -5 -5 -5
3 3 3 3 2 2 2 2 2 2 2 2 2 2 1 1 1 1 1 0 0 0 -0 -0 -0 -0 -1 -1 -1 -1 -1 -1 -1 -1 -1 -1 -2 -2 -2 -2 -2 -2 -3 -3 -3 -3 -3 -3 -4 -4 -4 -4 -4 -4 -5 -5 -5 -5 -5 -5 -5 -5 -5 -6 -6 -5 -5 -5 -5
3 3 3 3 2 2 2 2 2 2 2 2 2 1 1 1 1 1 0 0 -0 -0 -0 -0 -0 -1 -1 -1 -1 -1 -1 -1 -1 -1 -2 -2 -2 -2 -3 -3 -3 -3 -3 -3 -3 -3 -4 -4 -4 -4 -4 -4 -4 -5 -5 -5 -5 -5 -5 -5 -6 -6 -6 -6 -6 -5 -5 -5 -5
3 3 3 2 2 2 2 2 2 2 2 2 1 1 1 1 1 0 0 0 -0 -0 -0 -0 -1 -1 -1 -1 -1 -1 -1 -1 -1 -2 -2 -2 -2 -3 -3 -3 -3 -3 -3 -3 -3 -4 -4 -4 -4 -5 -5 -5 -5 -5 -5 -5 -5 -5 -6 -6 -6 -6 -6 -6 -6 -5 -5 -5 -5
3 3 2 2 2 2 2 2 2 2 2 2 1 1 1 1 1 0 0 -0 -0 -0 -1 -1 -1 -1 -1 -1 -1 -1 -1 -1 -2 -2 -2 -2 -3 -3 -3 -3 -3 -3 -3 -4 -4 -4 -4 -4 -5 -5 -5 -5 -5 -5 -5 -5 -5 -6 -6 -6 -6 -6 -6 -6 -5 -5 -5 -5 -5
3 3 2 2 2 2 2 2 2 2 2 2 1 1 1 1 0 0 -0 -0 -0 -1 -1 -1 -1 -1 -1 -1 -1 -1 -1 -2 -2 -2 -3 -3 -3 -3 -3 -3 -4 -4 -4 -4 -4 -4 -4 -5 -5 -5 -5 -5 -5 -5 -5 -5 -6 -6 -6 -6 -6 -6 -6 -5 -5 -5 -5 -5 -5
Height
796 796 795 795 795 794 794 794 793 792 792 791 790 790 789 789 788 787 786 786 785 784 783 783 782 782 781 781 781 781 781 782 782 783 783 783 783 784 783 784 784 784 785 786 787 788 789 789 790 790 791 791 792 792 792 793 793 793 793 794 794 794 794 794 794 794 794 794 794
796 795 795 794 794 794 793 793 792 792 791 790 790 790 789 789 788 787 786 786 785 784 784 783 783 782 782 782 782 782 782 783 783 784 784 785 785 785 785 785 785 785 786 787 788 788 789 789 789 790 790 791 791 791 791 791 791 791 792 792 792 793 793 792 792 792 792 793 793
795 795 794 794 793 793 792 792 792 791 791 790 790 789 789 788 788 787 786 786 785 784 784 783 783 783 782 782 782 782 782 783 784 784 785 785 786 786 786 786 786 786 786 787 787 787 788 789 789 789 790 789 789 789 789 789 789 790 790 791 791 791 791 791 790 791 791 791 792
795 794 794 793 793 792 792 791 791 791 790 790 789 789 789 788 787 787 786 786 785 784 784 784 783 783 783 782 782 782 782 782 783 784 784 785 786 786 787 787 787 786 786 786 786 787 787 788 788 789 789 789 788 788 788 788 789 789 789 790 789 789 789 789 789 790 790 790 791
795 794 793 793 792 792 791 791 791 790 790 789 789 789 788 788 787 786 786 786 785 785 784 784 784 783 783 783 782 782 782 782 783 783 784 784 784 785 786 786 786 786 786 786 787 787 787 787 788 788 787 787 787 787 787 788 788 789 789 789 789 788 788 788 789 789 789 789 789
794 794 793 792 792 791 791 791 790 790 789 789 789 788 788 787 787 786 786 785 785 785 784 784 784 784 784 784 783 783 783 783 783 783 783 783 783 784 784 784 785 785 786 786 786 786 786 786 786 786 786 786 786 786 787 787 787 787 787 787 787 787 787 787 788 788 788 789 789
794 793 793 792 791 791 791 790 790 790 789 789 788 788 787 787 787 786 786 786 785 785 785 785 784 784 784 784 784 784 784 783 783 783 783 783 783 783 784 784 784 784 784 784 784 784 785 785 785 785 785 785 785 785 785 785 785 785 785 785 786 786 786 786 786 787 787 787 787
794 793 792 791 791 791 790 790 790 789 789 788 788 787 787 787 786 786 786 786 785 785 785 785 784 784 784 784 784 783 783 784 784 784 784 783 783 783 783 783 783 783 783 783 783 783 783 783 783 783 784 784 784 784 784 784 784 784 784 784 784 784 785 785 785 785 785 785 785
793 792 791 791 791 790 790 789 789 789 788 788 787 787 786 786 786 786 786 785 785 785 785 785 784 784 784 783 783 783 783 783 783 783 783 783 783 782 782 782 782 782 781 781 782 782 782 782 782 782 782 782 782 783 783 783 783 783 783 783 783 784 784 784 784 784 784 784 784
792 791 791 790 790 790 789 789 788 788 788 787 787 786 786 786 785 785 785 785 785 785 785 784 784 784 783 783 782 782 782 782 783 783 783 783 782 782 781 781 781 781 781 781 781 781 781 781 781 781 781 782 782 782 782 782 782 782 782 782 782 782 783 783 783 783 783 783 782
791 790 790 789 789 789 788 788 787 787 787 786 786 786 785 785 785 785 785 784 784 784 784 784 784 783 783 782 782 782 782 782 782 782 782 782 782 781 781 781 780 780 780 780 780 780 780 781 781 781 781 781 781 781 781 781 781 781 781 781 781 781 781 781 782 782 781 781 781
789 789 789 788 788 788 787 787 786 786 786 785 785 785 784 784 784 784 784 784 784 784 784 783 783 783 782 782 781 781 781 782 782 782 782 782 781 781 781 780 780 780 780 780 780 780 780 780 780 780 780 780 780 780 780 780 780 780 780 780 780 780 780 780 780 780 780 779 779
788 788 787 787 787 786 786 786 785 785 785 785 784 784 784 784 783 783 783 783 783 783 783 782 782 782 782 781 781 781 781 781 781 781 781 781 781 781 780 780 780 780 779 779 779 779 779 779 779 778 778 779 779 779 779 779 779 779 779 779 779 779 779 779 779 779 778 778 778
787 787 786 786 785 785 785 784 784 784 784 784 784 783 783 783 782 782 782 782 782 782 782 781 781 781 781 781 781 781 781 781 781 781 781 780 780 780 780 780 780 779 779 779 778 778 778 777 777 777 777 777 777 778 778 778 778 778 778 778 778 777 777 777 777 777 777 776 776
787 786 786 785 785 784 784 784 783 783 783 783 783 782 782 782 782 781 781 781 781 781 780 780 780 780 780 780 780 780 780 780 780 780 780 780 780 780 780 780 780 779 779 778 778 777 777 776 776 776 776 776 776 777 777 777 777 776 776 776 776 776 776 776 776 775 775 775 774
786 786 785 785 784 784 783 783 782 782 782 782 782 781 781 781 781 780 780 780 780 780 780 780 780 780 780 780 780 780 780 780 780 780 780 780 780 780 780 780 780 779 779 778 777 777 776 776 776 776 775 775 775 775 775 775 775 775 775 775 775 774 774 774 774 774 774 773 773
786 786 785 785 784 784 783 782 781 781 781 781 781 780 780 780 780 779 779 779 779 779 779 779 779 779 779 780 780 780 780 780 780 780 780 780 780 780 780 780 779 779 778 778 777 776 776 775 775 775 774 774 774 774 774 774 774 774 774 774 773 773 773 773 772 772 772 771 771
785 785 785 784 784 783 782 781 781 780 780 780 779 779 779 779 779 779 779 778 779 779 779 779 779 779 779 779 779 779 779 779 779 779 779 779 779 779 779 779 779 779 778 777 776 776 775 774 774 774 774 773 773 773 773 773 773 772 772 772 772 771 771 771 770 770 770 769 769
784 784 783 783 783 782 781 780 780 779 779 779 779 778 778 778 778 778 778 778 778 778 778 778 778 778 778 779 779 779 779 779 779 779 779 779 779 779 779 779 778 778 777 777 776 775 774 774 773 773 772 772 772 771 771 771 771 771 770 770 770 769 769 769 769 769 768 768 767
782 781 781 780 780 780 779 779 778 778 778 778 777 777 777 777 777 777 777 777 777 777 777 777 777 777 778 778 778 778 778 778 778 778 778 778 778 778 778 778 777 777 777 776 775 774 774 773 772 771 771 771 770 770 770 769 769 769 769 769 768 768 768 767 767 767 766 766 765
780 779 779 778 778 777 777 777 777 777 776 776 776 776 776 776 776 776 776 776 776 776 776 776 776 777 777 777 777 777 777 777 777 777 777 777 777 777 776 776 776 776 775 775 774 774 773 772 771 770 770 769 769 769 768 768 768 767 767 767 766 766 766 765 765 765 764 764 764
779 778 777 776 776 775 775 775 775 775 775 775 775 774 774 774 775 775 775 775 775 775 775 775 775 776 776 776 776 776 776 776 776 776 775 775 775 775 775 775 775 775 774 774 773 773 772 771 770 769 769 768 768 767 767 767 766 766 765 765 765 764 764 764 763 763 762 762 761
777 776 775 775 774 774 774 774 774 774 774 774 774 774 774 774 774 774 774 774 774 774 774 774 774 774 774 774 774 774 774 774 774 774 774 774 774 774 774 774 774 773 773 773 772 771 771 770 769 769 768 767 767 766 766 765 765 764 764 763 763 763 762 762 761 761 760 760 759
775 774 774 774 773 773 773 773 773 773 773 772 772 772 773 773 773 773 774 774 774 774 774 773 773 773 773 773 773 773 773 773 773 773 773 773 773 773 773 773 772 772 772 771 771 770 769 769 768 767 767 766 765 765 764 764 764 763 762 762 761 760 760 759 759 759 758 758 758
774 773 772 772 772 771 771 771 771 771 771 771 771 771 772 772 772 772 772 773 772 772 772 772 772 772 772 772 772 772 772 772 772 772 772 772 772 772 772 771 771 771 770 770 770 769 769 768 767 766 766 765 764 764 763 763 762 762 761 760 759 759 758 757 757 757 756 756 755
772 771 771 770 770 770 770 770 769 769 770 770 770 770 771 771 771 771 771 771 771 771 771 771 771 771 771 771 771 771 771 771 771 771 771 771 771 771 770 770 770 770 769 769 769 768 767 767 766 765 765 764 764 763 762 761 761 760 759 759 758 757 756 755 754 754 754 754 753
770 769 769 769 769 769 769 769 769 769 769 769 769 769 769 769 769 770 770 770 770 770 770 770 771 771 771 771 771 771 771 771 771 770 770 770 770 770 769 769 769 769 768 768 767 767 766 766 765 764 764 763 762 762 761 760 759 759 758 757 756 756 755 754 753 752 752 751 751
769 768 768 768 768 768 769 769 769 768 768 768 768 768 768 769 769 769 769 769 769 769 770 770 770 770 770 770 770 770 770 770 770 770 770 769 769 769 769 768 768 768 767 767 766 765 765 764 764 764 763 762 761 760 760 759 758 757 756 756 755 754 753 752 752 751 750 749 749
768 767 767 767 768 768 768 768 768 768 767 767 767 768 768 768 768 768 768 768 768 769 769 769 769 769 769 769 769 769 769 769 769 769 769 769 768 768 768 767 767 766 766 765 765 764 764 764 763 762 762 761 760 759 759 758 757 756 755 754 753 753 752 751 750 749 749 748 747
767 766 766 767 767 767 767 767 767 767 767 767 767 767 768 767 767 767 767 768 768 768 768 769 769 769 768 768 768 768 768 768 768 768 768 767 767 766 766 766 765 765 764 764 764 763 763 762 762 761 760 760 759 758 757 756 755 754 753 752 752 751 750 749 749 748 747 746 745
766 765 765 765 766 766 766 766 767 767 767 767 767 767 767 767 767 767 767 767 767 767 767 767 767 767 767 767 767 767 767 766 766 766 766 766 765 765 764 764 764 764 763 763 763 762 761 761 760 760 759 759 758 757 756 755 754 753 752 751 750 749 749 748 747 746 745 744 743
765 765 764 765 765 765 766 766 766 766 766 766 766 767 767 767 767 767 767 767 767 766 766 766 766 766 766 765 765 765 765 765 765 765 764 764 764 764 763 763 763 763 762 762 761 761 760 760 759 759 758 757 756 755 754 753 752 751 750 749 749 748 747 746 745 744 744 743 742
765 764 764 764 764 765 765 765 766 766 766 766 766 766 767 767 766 766 766 766 766 765 765 765 765 764 764 764 764 764 764 764 764 764 763 763 763 762 762 762 762 761 761 761 760 759 759 759 758 757 756 755 754 754 753 752 751 750 749 748 747 746 745 744 744 743 742 741 740
765 764 764 764 764 764 764 765 765 765 766 766 766 766 766 766 766 766 766 765 765 765 764 764 764 764 764 764 764 763 763 763 763 763 762 762 762 761 761 761 761 760 760 759 759 758 758 757 756 756 755 754 753 752 751 750 749 748 747 746 745 744 744 743 742 741 740 739 739
765 765 765 765 765 765 765 765 765 766 766 766 766 766 766 766 766 765 765 764 764 764 764 763 763 763 763 763 763 763 762 762 762 761 761 761 760 760 760 759 759 759 759 758 758 757 756 756 755 754 753 752 751 750 749 749 747 746 745 744 744 743 742 741 740 739 739 738 737
766 766 766 766 766 766 766 766 766 766 765 765 766 766 765 765 765 765 764 764 764 763 763 763 763 762 762 762 762 762 761 761 761 760 760 759 759 759 759 759 758 758 758 757 757 756 755 754 754 753 752 751 750 749 748 747 746 744 744 743 742 741 740 739 739 738 737 736 735
766 766 766 766 766 766 766 766 765 765 765 765 765 765 764 764 764 764 764 763 763 763 762 762 762 762 761 761 761 761 760 760 759 759 759 759 758 758 758 757 757 757 757 756 755 754 754 753 752 751 750 749 749 747 746 745 744 743 742 741 740 739 738 738 737 736 735 734 733
766 766 766 766 766 766 766 766 765 765 765 764 764 764 764 764 763 763 763 763 762 762 762 761 761 761 760 760 760 760 759 759 759 758 758 758 757 757 756 756 756 755 755 755 754 753 752 752 751 750 749 748 747 746 745 744 742 741 740 739 738 737 737 736 735 734 733 732 731
765 765 765 766 766 766 765 765 765 764 764 764 763 763 763 763 763 763 762 762 762 761 761 761 760 760 759 759 759 759 759 758 758 757 757 757 756 756 755 755 754 754 754 753 753 752 751 750 749 749 748 747 746 745 744 742 741 740 739 738 737 736 735 734 733 732 731 730 729
764 764 765 765 765 765 765 764 764 764 763 763 763 763 763 762 762 762 762 761 761 761 760 760 759 759 759 758 758 758 758 757 757 757 756 756 755 755 755 754 753 753 752 752 751 750 749 749 748 748 747 746 745 744 742 741 740 739 738 737 736 734 733 732 731 730 729 728 727
763 764 764 764 764 764 764 764 764 763 763 763 763 763 762 762 762 761 761 761 760 760 759 759 759 758 758 758 757 757 757 757 756 756 755 755 755 754 754 753 752 752 751 750 750 749 748 748 747 746 745 744 744 742 741 740 739 738 736 735 734 733 732 730 729 729 728 727 726
Wind_Speed
12 13 13 13 14 14 14 15 15 16 16 17 17 16 16 15 14 13 13 12 11 9 8 7 6 5 3 0 2 4 7 9 11 12 12 12 11 11 10 10 10 9 8 7 6 5 4 3 4 6 8 11 13 15 15 16 15 14 11 9 7 7 8 10 11 12 13 13 14
12 12 13 13 14 14 14 14 14 15 16 16 16 15 14 13 12 11 11 10 8 7 5 4 3 1 2 4 5 7 9 10 11 10 9 9 8 8 8 8 8 7 6 5 4 4 5 7 9 12 14 16 16 16 15 14 12 9 7 7 7 9 11 12 13 13 13 13 13
12 12 12 13 13 13 13 13 14 15 16 15 15 14 13 12 11 10 9 8 6 4 2 1 1 3 5 6 8 9 10 10 9 8 7 6 5 4 4 4 4 3 3 4 5 7 9 11 13 14 14 13 13 13 12 11 9 7 7 8 9 11 12 13 14 13 13 13 12
11 12 12 13 12 12 13 13 14 15 15 15 14 14 12 12 11 10 8 7 5 4 2 2 2 4 6 7 9 10 10 9 8 7 6 4 3 2 2 3 5 7 9 11 11 11 11 12 11 10 9 9 9 9 9 8 8 7 8 10 12 13 14 14 14 13 12 12 12
11 12 12 12 12 12 13 14 14 14 14 14 13 13 12 11 10 9 8 6 5 5 4 4 4 5 6 7 9 9 9 8 7 7 7 6 6 6 7 8 10 12 14 14 13 11 10 10 9 9 8 8 8 7 7 7 7 9 11 12 14 14 15 14 14 13 12 12 12
11 11 12 12 12 12 13 14 14 14 14 13 13 12 12 11 10 9 7 6 5 5 5 5 5 6 6 7 7 7 6 6 6 6 6 6 6 7 8 10 10 11 10 10 9 10 10 10 10 10 9 9 8 6 5 5 7 10 12 13 14 15 15 15 14 13 13 12 13
10 11 11 11 12 13 13 14 14 14 14 14 13 12 12 11 9 8 6 5 5 5 5 5 5 4 4 4 3 3 2 2 2 3 3 3 4 5 5 6 7 7 8 9 9 9 10 10 9 9 8 7 7 6 7 8 10 12 13 15 15 15 15 14 13 13 13 13 13
10 10 11 12 13 14 14 14 14 14 14 13 12 11 10 9 8 6 5 5 5 4 4 3 2 1 1 2 2 2 2 3 3 3 4 4 5 5 5 6 6 7 7 8 8 8 8 8 7 6 6 6 8 9 10 11 13 14 15 16 15 14 13 13 12 12 13 13 13
10 11 12 13 14 14 15 15 15 14 13 12 11 10 9 8 6 5 5 4 4 3 2 2 1 1 2 3 4 4 5 4 3 3 4 4 5 5 5 5 6 6 6 6 6 6 6 6 6 6 8 9 11 12 13 14 15 16 16 16 14 13 12 12 12 12 13 13 13
11 11 12 13 14 15 15 15 15 14 13 12 11 10 9 8 6 5 4 4 3 2 2 2 2 3 4 5 5 6 5 4 2 2 3 4 4 4 4 4 4 4 4 4 5 6 6 7 8 10 11 12 14 15 15 15 16 15 15 14 13 12 12 12 13 13 13 14 14
11 12 13 14 15 15 15 15 15 14 13 12 11 10 9 7 6 5 5 4 3 3 3 3 4 5 6 7 7 6 4 2 2 2 3 4 3 3 3 3 3 4 4 5 7 8 10 11 12 13 13 14 15 15 15 14 14 13 13 12 12 13 13 13 14 14 14 15 16
12 13 13 14 15 15 15 15 14 14 13 12 11 10 9 8 7 6 6 5 5 5 5 6 7 8 8 8 8 6 4 2 2 4 5 5 4 4 4 4 5 5 7 8 9 11 12 13 13 13 14 13 13 13 12 12 12 12 12 13 13 14 14 15 15 15 16 16 17
12 13 13 14 14 14 14 14 13 13 12 12 11 10 9 8 8 7 7 7 7 7 8 9 10 9 9 8 7 5 4 4 5 6 7 7 6 6 6 6 7 7 8 10 11 12 12 12 12 12 11 11 11 11 11 11 11 12 13 13 14 14 15 15 16 16 16 17 17
12 13 13 13 13 12 12 12 12 12 12 11 11 10 10 9 9 9 8 8 9 10 11 11 11 10 9 7 6 5 5 7 8 9 9 8 8 8 8 8 8 9 10 11 12 12 12 12 11 11 11 11 11 11 11 11 12 12 13 14 14 15 15 15 16 16 16 17 17
12 12 12 12 11 11 11 11 12 12 12 11 11 11 11 10 10 10 10 10 10 11 11 11 10 9 8 7 6 7 8 10 11 10 10 9 9 9 9 9 10 11 12 12 13 12 12 11 11 11 11 11 12 12 12 12 13 13 13 14 14 15 15 15 15 15 16 16 17
12 12 12 12 11 11 11 12 12 12 12 12 12 11 11 11 11 12 12 11 11 10 10 10 9 8 7 7 8 10 11 12 11 11 10 9 9 9 9 10 12 12 13 13 12 12 11 11 11 11 12 12 12 13 13 13 13 13 13 13 14 14 14 15 15 15 16 16 17
12 13 13 13 13 13 13 13 12 12 12 12 12 12 12 12 12 13 12 12 11 11 10 9 9 8 8 9 11 12 12 11 10 10 9 9 9 10 11 12 13 13 13 12 11 11 11 11 12 12 12 13 13 13 13 13 13 13 13 13 14 14 14 15 15 15 16 16 17
12 13 14 14 15 15 15 14 13 13 13 13 13 13 13 14 14 14 13 12 11 10 9 8 8 9 10 11 11 11 10 9 8 8 8 9 10 11 12 13 13 12 12 11 12 12 12 12 13 13 13 13 13 13 13 13 13 13 13 14 14 15 15 16 16 16 16 17 18
12 13 14 16 17 17 17 15 14 14 14 14 14 14 15 15 15 14 13 11 9 8 8 8 10 11 12 11 10 9 8 8 8 8 9 10 11 12 12 12 12 11 11 12 12 13 13 13 13 13 13 13 13 13 13 13 13 14 14 15 15 16 17 17 17 17 18 18 18
12 13 15 17 18 18 18 16 15 14 14 14 15 15 16 16 16 15 13 11 8 7 8 10 11 11 11 10 9 8 8 9 9 10 11 12 12 12 11 11 11 11 12 12 13 13 13 13 13 13 13 13 13 14 14 14 15 15 16 16 17 18 18 19 19 19 19 19 20
13 15 16 18 19 19 18 17 15 15 14 15 16 16 17 17 17 16 14 11 9 8 9 10 10 10 10 9 9 9 10 11 11 12 12 11 10 9 9 10 11 11 12 12 13 13 13 13 13 14 14 14 15 15 15 16 16 17 17 18 19 19 20 20 21 21 21 21 21
15 16 18 19 19 19 18 16 15 15 15 15 16 17 17 18 17 16 14 11 9 10 10 10 10 9 9 9 10 11 11 11 11 10 9 8 7 7 8 9 11 12 12 12 13 13 14 14 14 15 15 15 16 16 17 17 18 18 19 20 20 21 22 22 22 23 23 23 23
16 18 19 19 19 18 17 16 15 15 16 16 17 18 18 17 17 15 13 11 10 10 11 10 9 9 10 10 11 11 11 10 9 8 7 6 7 8 9 10 11 12 13 13 14 14 15 16 16 16 17 17 17 18 18 18 19 19 20 21 22 22 23 23 24 24 24 24 25
18 19 20 20 19 18 16 16 15 16 16 17 17 18 17 17 16 15 13 12 11 11 11 10 10 10 10 10 10 10 9 9 8 8 8 8 8 9 10 10 11 12 13 14 15 16 17 18 18 19 19 19 19 19 19 19 20 20 21 22 22 23 24 24 24 25 25 25 25
19 20 20 19 18 17 16 15 15 16 16 17 17 17 16 16 15 15 14 13 12 12 12 11 10 10 9 9 9 8 8 8 8 8 9 9 10 10 11 11 12 13 14 15 17 18 19 20 20 20 21 21 20 20 20 20 20 20 21 21 22 23 24 25 25 25 25 26 26
20 20 20 19 18 16 15 15 15 15 16 16 16 16 15 15 15 15 14 13 13 12 11 10 8 7 7 7 7 7 7 7 8 9 9 10 11 11 11 12 13 14 15 16 17 19 20 20 21 21 21 21 21 20 20 20 20 20 21 21 22 23 24 25 26 26 27 27 27
20 20 19 18 17 16 15 15 15 15 15 15 15 15 15 15 15 14 13 12 12 10 9 6 5 5 5 5 6 7 7 8 8 9 9 10 11 11 12 13 13 14 16 17 18 19 20 20 21 21 20 20 20 19 19 20 20 21 21 22 22 23 24 25 26 27 27 27 27
20 20 19 18 17 16 15 15 14 15 15 15 15 15 14 13 12 12 11 10 8 6 4 3 3 5 6 7 8 8 8 9 9 9 10 10 11 12 13 13 14 15 16 18 19 19 20 20 20 19 19 18 18 18 19 20 21 21 22 23 23 24 24 25 25 26 26 26 26
20 19 18 18 17 16 15 15 15 15 15 15 14 13 12 11 10 9 7 5 3 2 2 4 5 7 8 8 9 9 9 9 10 10 11 11 12 13 13 14 15 16 17 18 18 19 19 18 18 18 17 17 17 18 19 20 21 22 23 23 24 24 24 25 25 25 25 25 25
19 18 17 16 15 15 14 14 14 14 13 12 11 11 10 9 7 5 3 2 1 3 5 7 8 9 9 9 10 10 11 12 12 12 13 13 13 14 15 15 16 17 17 17 17 17 17 17 16 16 16 17 18 19 20 21 21 22 23 23 24 24 24 24 24 24 24 24 24
18 17 16 15 15 14 13 12 12 11 10 9 9 7 5 4 2 1 1 2 4 6 8 9 10 10 11 11 12 13 13 14 14 13 13 13 14 14 15 16 16 16 16 16 15 15 15 15 15 16 17 17 18 19 20 21 22 22 23 23 23 23 23 23 23 23 23 23 23
16 15 14 14 14 13 12 10 9 8 7 5 3 1 1 1 1 1 3 5 7 9 11 11 12 13 13 14 14 14 14 13 13 12 12 13 13 14 15 15 16 15 14 14 14 14 14 15 16 17 17 18 19 19 20 21 22 22 22 23 23 23 22 22 22 21 21 22 22
13 12 12 12 12 11 9 7 5 3 2 2 2 2 2 1 3 5 8 9 11 12 13 13 13 13 13 13 13 13 12 11 11 11 12 12 13 14 15 15 14 13 12 13 13 14 15 16 17 17 18 18 19 20 21 21 22 22 22 22 22 22 21 21 20 21 21 21 22
10 8 7 6 5 3 1 1 2 3 3 3 2 2 2 4 7 9 11 12 13 14 14 13 13 12 11 11 10 10 10 10 11 11 12 13 13 14 14 13 12 12 12 13 14 15 16 17 17 18 19 19 20 20 20 21 21 22 22 22 22 21 20 20 20 20 21 21 22
6 4 3 2 3 4 5 5 5 4 3 3 3 4 6 9 11 12 12 13 13 13 12 11 10 9 9 8 8 9 10 11 11 12 12 12 12 12 12 12 11 12 12 13 14 15 17 17 18 19 19 19 19 20 20 21 21 22 22 22 22 21 20 20 20 20 21 21 22
5 5 6 7 7 7 6 5 4 3 4 5 6 8 9 10 11 11 11 11 10 10 9 8 8 7 7 8 8 9 10 10 11 11 11 10 10 10 11 11 12 12 13 14 15 16 17 18 19 19 19 19 19 20 20 21 21 22 22 22 21 21 20 20 20 21 21 22 22
5 6 6 6 6 5 4 4 4 5 6 7 8 8 9 9 9 8 8 8 8 7 7 7 7 7 8 8 8 9 9 10 10 10 10 9 9 9 10 12 13 13 14 15 16 17 18 19 19 18 18 18 19 20 21 21 22 22 22 21 21 21 21 21 21 21 22 22 22
3 3 4 4 3 3 4 5 6 6 7 7 7 7 7 7 6 6 6 6 6 7 7 8 8 8 8 8 9 9 9 9 9 9 9 9 9 10 11 13 14 15 16 16 17 18 18 19 18 17 17 18 19 20 21 21 22 22 21 21 21 21 20 21 21 22 22 23 23
2 1 2 3 4 4 5 6 6 6 5 5 5 5 5 5 5 5 6 6 6 7 7 8 8 8 9 9 9 10 10 9 9 9 9 9 9 10 12 14 15 17 17 18 18 18 18 18 17 17 17 18 19 20 21 21 21 21 21 20 20 20 20 21 21 22 22 23 22
1 2 3 5 5 5 5 5 4 4 4 4 4 4 4 5 5 5 6 6 7 7 8 8 9 9 9 10 10 10 10 10 9 9 9 9 10 11 13 15 17 18 19 19 18 18 18 17 17 17 17 18 19 20 20 20 20 20 20 20 20 20 20 21 21 21 21 21 21
3 4 5 5 5 4 3 3 2 3 4 4 4 4 4 5 5 6 6 7 8 8 9 9 9 10 10 10 10 10 10 10 10 9 10 11 12 13 14 16 17 19 19 19 18 17 17 17 17 17 17 18 18 19 20 20 20 20 19 19 20 20 20 20 20 20 20 20 20
Wind_Direction
313 317 321 323 324 324 325 325 326 327 327 325 322 320 318 318 319 321 324 326 326 326 328 332 335 340 342 2 158 159 159 158 155 153 153 154 156 158 160 162 164 166 169 173 179 188 203 231 265 284 287 285 282 280 282 288 295 303 311 318 321 319 313 306 302 298 294 288 285
315 318 321 322 324 324 325 326 327 327 326 323 319 316 314 314 316 319 321 323 321 322 328 340 350 32 123 137 143 145 145 143 141 141 141 142 145 147 148 150 153 156 161 172 195 229 257 271 276 278 277 276 276 280 286 293 302 311 320 322 317 312 307 303 300 297 292 287 286
316 319 321 322 323 325 326 327 328 326 324 320 315 312 310 309 310 313 315 315 311 307 311 344 121 148 151 148 148 146 142 138 136 135 134 132 132 134 140 149 159 175 209 249 259 263 266 269 272 275 279 284 289 295 301 308 317 324 323 314 309 305 302 298 296 293 289 287 289
318 320 321 322 324 325 327 328 327 324 320 314 310 307 305 303 304 305 306 302 291 274 252 218 178 171 169 163 156 150 147 146 148 150 153 158 170 195 237 262 272 277 279 277 273 268 267 270 278 287 298 308 314 318 323 329 332 324 312 305 303 299 296 293 292 291 290 291 294
319 320 322 323 325 327 328 327 323 319 314 310 306 303 300 299 298 298 295 286 268 247 231 213 192 180 176 170 160 157 159 165 173 182 190 201 215 234 251 264 273 279 282 280 279 278 281 287 294 302 310 316 319 323 329 334 322 308 301 300 298 294 291 288 289 290 291 291 292
318 321 323 326 328 328 326 322 318 314 310 306 303 300 298 295 294 291 283 269 249 226 207 189 175 168 165 163 163 167 175 185 198 210 220 232 243 252 258 263 268 274 281 286 290 293 296 299 301 304 306 309 312 315 315 310 299 293 291 291 291 289 287 285 286 286 285 284 284
321 323 327 329 329 326 321 317 313 309 306 304 300 298 296 293 291 284 271 253 230 203 180 166 157 154 154 161 169 180 195 219 248 268 284 296 299 297 292 289 288 290 293 296 299 301 303 306 307 309 310 312 308 304 300 294 286 282 281 283 286 286 284 283 281 279 277 277 279
327 329 330 329 326 321 316 312 309 306 304 302 299 297 295 293 288 277 259 239 213 191 175 167 163 169 207 235 245 261 279 298 316 329 336 342 342 339 333 327 322 317 312 309 308 309 310 312 313 313 310 302 293 293 294 291 283 279 280 283 285 284 282 279 276 274 274 276 278
332 332 330 326 320 315 311 308 306 303 301 299 295 292 290 288 281 267 249 232 211 201 201 210 228 255 264 269 275 283 289 294 313 342 356 357 357 353 348 343 337 332 326 322 319 317 316 317 309 303 299 294 290 288 287 285 283 283 285 287 287 285 282 280 278 278 278 280 281
333 330 325 319 313 308 305 304 302 300 296 293 288 284 282 278 270 256 243 233 228 226 231 241 252 256 261 271 282 287 288 287 307 345 358 357 354 351 348 346 341 336 329 322 316 311 307 302 297 293 292 290 289 290 291 292 292 292 293 292 290 288 286 285 284 285 285 286 287
330 325 318 311 305 303 301 300 298 295 292 287 282 278 274 268 260 249 243 243 242 241 246 255 259 261 265 272 279 280 276 277 314 339 339 334 328 322 317 312 308 306 304 302 299 298 296 295 294 294 295 296 297 299 301 302 302 301 299 297 295 294 293 292 292 292 293 293 293
323 317 311 305 302 300 299 297 294 291 287 281 276 271 267 262 255 250 249 250 247 250 256 260 263 265 267 268 268 266 262 271 311 319 314 305 293 281 273 274 280 286 291 295 297 299 299 299 301 303 304 306 308 309 309 309 307 305 303 301 299 298 297 297 298 298 297 297 295
315 310 306 303 302 300 299 295 291 287 282 276 271 266 261 257 254 252 252 252 253 255 257 260 264 265 263 261 259 257 265 291 307 308 303 293 281 270 265 268 274 282 289 295 299 302 304 307 309 311 313 313 313 313 311 309 307 305 303 302 301 300 300 300 300 300 299 298 296
310 307 305 304 304 302 299 293 288 284 278 272 267 263 258 254 252 253 253 253 254 255 256 258 260 261 260 258 258 268 287 301 304 302 295 287 277 271 269 272 278 284 290 295 299 303 307 310 312 313 314 313 312 311 309 308 305 304 303 301 301 300 300 301 301 300 298 296 295
308 307 306 306 305 303 298 291 286 281 275 267 264 260 256 252 252 253 253 251 251 253 254 255 255 256 259 263 273 287 296 299 297 293 287 280 275 273 274 278 282 287 292 296 300 305 308 312 313 314 313 313 312 310 308 306 305 303 302 301 300 300 300 300 299 298 296 294 292
309 308 307 307 305 302 296 289 283 277 271 263 260 257 254 252 252 253 253 251 249 250 252 253 253 256 262 274 286 293 294 292 288 283 279 276 275 276 279 282 287 292 296 300 304 307 310 312 314 315 314 313 311 309 308 306 304 302 301 301 300 300 299 299 298 296 294 292 289
311 310 308 306 303 300 295 288 280 273 266 261 258 256 254 253 252 252 254 254 253 252 252 253 255 261 273 283 288 289 287 284 280 277 276 276 276 279 283 288 294 298 302 305 308 311 313 315 315 315 314 313 311 309 307 306 304 303 303 302 301 300 300 299 298 296 294 292 289
311 310 308 306 303 299 294 287 278 270 264 260 257 255 254 253 252 252 253 254 254 252 253 257 265 274 281 284 286 285 283 279 276 274 274 275 278 284 290 296 301 304 308 311 313 315 316 316 315 315 313 312 311 309 308 307 307 306 305 305 304 303 302 302 300 298 295 293 291
309 309 307 305 302 297 291 283 275 268 262 258 256 255 253 252 252 251 250 247 249 254 264 275 281 284 285 284 282 280 277 275 274 274 276 280 286 292 298 303 307 310 313 315 316 317 316 316 315 314 313 312 311 311 310 310 309 309 308 307 306 305 304 303 302 300 297 295 293
307 307 306 303 299 293 286 279 272 265 260 257 256 254 253 251 251 250 248 245 251 269 286 293 293 289 284 280 277 275 275 277 279 282 286 290 295 300 305 308 312 315 317 319 319 318 317 316 315 315 314 313 313 313 312 312 311 310 309 308 307 306 305 304 302 300 298 297 295
305 304 303 300 294 288 281 275 268 263 259 256 255 254 253 251 251 249 247 249 263 286 300 303 298 289 281 276 275 277 280 283 286 290 293 296 301 306 312 315 319 321 322 322 321 320 318 317 316 316 315 314 314 314 313 312 311 310 309 308 306 305 304 303 302 300 298 297 295
301 300 299 296 292 285 278 271 265 260 257 255 255 254 253 251 249 246 246 253 272 293 304 305 298 287 279 276 277 279 282 284 287 290 294 298 304 310 317 322 326 327 326 325 323 321 319 318 318 317 317 316 315 314 313 312 311 310 308 307 305 304 303 301 300 299 297 296 295
298 298 297 295 290 283 275 267 262 258 257 256 256 255 252 249 246 244 247 257 276 294 302 301 292 282 276 274 275 277 279 281 282 283 287 292 298 306 314 322 327 329 328 327 324 322 321 320 319 319 318 317 316 314 313 311 310 309 307 306 304 303 301 300 298 297 296 295 294
297 297 296 292 287 279 271 264 260 259 258 258 257 255 251 247 244 244 249 261 278 291 297 294 285 277 272 271 272 274 276 278 278 280 283 288 294 300 307 314 320 323 324 324 323 322 322 321 320 319 318 317 315 313 312 310 309 308 306 305 303 302 300 298 297 296 295 295 294
298 297 294 289 282 275 268 263 261 262 262 262 259 255 250 246 244 246 252 264 278 288 291 287 280 274 271 270 271 275 278 282 286 289 292 295 298 301 304 308 311 315 316 318 318 319 319 318 318 317 316 314 312 311 310 309 308 306 305 303 302 301 300 299 298 297 297 296 296
297 294 290 285 278 271 267 265 266 267 266 262 257 251 246 244 244 248 257 270 282 287 287 283 277 273 272 274 279 286 293 299 304 306 307 307 306 306 307 308 309 310 312 313 314 314 314 314 313 313 312 311 310 309 308 307 306 305 304 303 302 301 300 300 300 300 299 299 298
295 291 287 281 275 270 268 269 268 265 260 253 246 242 241 243 247 255 267 279 284 285 283 279 277 283 291 299 307 312 315 318 320 320 318 316 313 311 310 309 309 310 311 311 311 311 311 310 310 309 308 308 308 307 307 306 306 305 304 303 302 302 302 302 301 301 301 300 299
295 291 285 278 272 269 267 265 259 252 245 241 237 237 241 247 257 269 279 284 283 279 277 282 302 320 325 326 329 331 331 330 329 326 322 318 315 312 311 310 310 310 311 311 311 310 309 309 307 306 306 306 306 306 306 306 306 305 305 304 303 303 302 302 301 301 300 300 299
297 291 282 273 266 261 257 252 246 241 238 238 239 244 252 262 272 280 283 281 275 280 304 321 331 337 339 339 339 337 335 332 329 325 320 316 313 310 309 309 310 310 310 310 309 308 306 305 305 305 306 307 308 308 307 307 306 306 305 304 303 303 302 302 301 300 299 299 299
297 290 277 264 255 250 247 245 243 243 245 249 256 263 271 275 277 277 273 266 317 333 333 333 337 339 340 340 336 333 330 326 322 319 316 313 310 308 308 308 309 309 308 306 305 304 304 304 305 307 309 309 310 309 308 308 306 305 304 303 303 302 302 301 301 301 300 301 301
299 290 277 261 251 248 249 251 255 261 269 276 281 280 274 264 257 257 297 343 343 340 337 337 337 336 334 330 327 324 322 319 317 314 312 309 306 305 305 305 305 304 303 302 302 303 305 307 309 311 312 312 312 310 309 307 305 304 302 302 302 302 302 303 303 302 303 303 302
304 296 282 267 258 258 263 271 281 291 298 302 298 263 182 158 96 11 352 340 338 338 337 335 333 330 327 323 321 318 316 314 311 309 306 304 302 300 300 299 300 300 300 302 305 307 310 312 313 314 314 314 313 310 307 305 303 302 302 302 302 303 304 304 304 304 304 303 302
313 304 291 278 270 271 278 290 305 325 2 67 98 112 107 53 1 344 337 334 333 333 332 330 328 325 322 319 316 313 310 308 305 303 301 299 297 295 295 296 298 301 304 307 310 312 314 315 315 316 316 314 312 309 306 304 303 302 303 303 304 305 306 306 305 303 302 301 300
327 319 305 290 282 282 299 44 71 80 87 91 77 49 8 345 335 332 330 329 328 327 327 326 325 323 319 315 311 308 305 304 302 301 299 297 295 294 295 298 303 308 311 313 314 315 316 317 317 317 316 314 311 308 306 305 304 305 306 307 307 308 307 306 303 301 300 300 299
352 1 26 68 89 95 95 92 86 79 62 34 7 348 335 329 327 327 327 326 325 325 325 326 325 322 318 314 310 307 305 304 303 302 301 299 298 298 301 305 310 314 316 317 318 318 318 318 318 317 315 313 310 308 307 307 308 308 309 310 310 309 307 305 302 301 300 300 299
36 59 78 89 93 93 87 76 58 33 8 350 337 330 326 325 326 327 327 327 328 329 329 329 326 323 318 314 311 309 307 307 306 306 306 305 305 306 309 312 315 317 319 320 319 319 319 319 318 317 315 312 310 309 310 310 311 311 312 312 311 309 307 305 303 302 301 300 300
56 69 78 83 81 73 55 28 4 350 339 331 326 325 326 329 332 334 334 335 336 335 333 331 328 324 320 317 314 313 312 312 312 313 313 313 313 313 314 315 317 319 321 321 321 320 319 319 318 316 314 312 311 312 313 314 314 314 314 313 311 309 307 305 304 303 302 302 301
73 72 64 56 41 19 358 344 335 329 326 325 327 330 334 337 342 345 346 343 341 336 332 329 327 324 321 319 317 317 317 317 317 318 319 319 318 318 318 318 319 320 322 322 321 320 319 319 317 315 313 313 313 315 316 317 317 317 316 314 312 309 307 306 305 304 303 303 302
113 71 13 348 338 331 326 323 321 322 324 331 338 342 342 344 346 346 344 341 337 333 329 327 325 323 321 320 319 320 321 322 322 322 322 322 321 321 321 321 321 322 323 323 322 320 319 318 317 315 314 314 316 317 319 319 319 318 316 314 312 309 307 306 305 304 303 302 301
182 297 307 308 309 308 309 310 316 325 333 340 343 342 340 338 338 337 336 335 333 330 328 326 324 322 321 321 321 323 325 325 325 325 323 323 323 323 324 324 324 323 323 323 322 320 319 319 318 316 315 317 318 320 321 321 320 318 316 313 312 309 308 306 305 303 301 300 300
273 292 296 295 293 294 297 308 327 338 339 337 334 331 328 326 327 328 330 330 330 328 326 324 323 322 321 322 323 325 327 327 327 326 325 325 325 326 327 326 326 325 324 323 321 320 320 321 320 319 318 320 321 322 322 322 320 317 314 312 310 309 307 306 305 303 301 301 301